#timestamp,LO_Frequency,Hit,StdDev 
1689609615.3,286046998.3,N
1689609635.1,286046999.3,N
1689609655.9,286046997.0,N
1689609675.7,286046997.2,N
1689609695.6,286046997.4,N
1689609715.4,286046997.2,N
1689609735.2,286046996.8,N
1689609755.1,286046997.2,N
1689609756.0,286046997.2,N
1689609775.8,286046997.2,N
1689609795.7,286046997.2,N
1689609815.5,286046996.8,N
1689609835.3,286046997.1,N
1689609855.2,286046997.2,N
1689609875.0,286046999.3,N
1689609875.9,286046999.3,N
1689609895.7,286046996.9,N
1689609915.6,286046997.4,N
1689609935.4,286046997.3,N
1689609955.3,286046996.6,N
1689609975.1,286046997.7,N
1689609995.8,286046997.2,N
1689610015.7,286046996.6,N
1689610035.5,286046996.6,N
1689610055.4,286046997.1,N
1689610075.2,286046995.4,Y
1689610095.0,286046999.5,P
1689610095.9,286046999.5,N
1689610115.8,286046999.1,N
1689610135.6,286046998.8,N
1689610155.5,286046999.0,N
1689610175.3,286046998.2,Y
1689610195.1,286047000.6,P
1689610215.9,286046998.6,N
1689610235.7,286047001.2,N
1689610255.6,286046998.8,N
1689610275.4,286046998.8,N
1689610295.2,286046998.8,N
1689610315.1,286046998.6,N
1689610316.0,286046998.6,N
1689610335.8,286046999.1,N
1689610355.6,286046998.9,N
1689610375.5,286046998.3,N
1689610395.3,286046998.2,N
1689610415.1,286046998.4,N
1689610435.9,286046998.5,N
1689610455.7,286046998.8,N
1689610475.6,286046999.5,N
1689610495.4,286046996.5,Y
1689610515.2,286047000.9,P
1689610535.1,286047000.9,N
1689610536.0,286047000.9,N
1689610555.8,286046998.5,N
1689610575.7,286046998.9,N
1689610595.5,286047000.8,N
1689610615.3,286046998.6,N
1689610635.2,286047000.8,N
1689610655.0,286047000.9,N
1689610655.9,286047000.9,N
1689610675.8,286046998.9,N
1689610695.6,286047001.1,N
1689610715.4,286047000.5,N
1689610735.3,286047000.8,N
1689610755.1,286046998.5,N
1689610775.8,286046998.7,N
1689610795.7,286046998.7,N
1689610815.5,286046998.3,N
1689610835.4,286046998.7,N
1689610855.2,286046998.6,N
1689610875.0,286046998.1,N
1689610875.9,286046998.1,N
1689610895.8,286047000.8,N
1689610915.6,286047001.2,N
1689610935.5,286046998.2,N
1689610955.3,286046998.8,N
1689610975.1,286046998.5,N
1689610995.9,286046998.3,N
1689611015.7,286046998.5,N
1689611035.5,286047000.7,N
1689611055.4,286047001.2,N
1689611075.2,286047001.2,N
1689611095.0,286046998.3,N
1689611096.0,286046998.3,N
1689611115.8,286046998.9,N
1689611135.6,286046999.4,N
1689611155.5,286046998.5,N
1689611175.3,286046998.9,N
1689611195.1,286046998.7,N
1689611215.9,286046998.4,N
1689611235.7,286046998.6,N
1689611255.6,286046998.4,N
1689611275.4,286046998.7,N
1689611295.2,286046999.0,N
1689611315.1,286046998.4,N
1689611316.0,286046998.4,N
1689611335.8,286046998.4,N
1689611355.6,286046999.3,N
1689611375.5,286046998.9,N
1689611395.3,286046999.5,N
1689611415.2,286046998.8,N
1689611435.9,286046999.3,N
1689611455.7,286046999.6,N
1689611475.6,286046996.6,Y
1689611495.4,286046998.7,P
1689611515.2,286046999.3,P
1689611535.1,286046999.2,P
1689611536.0,286046999.2,Y
1689611555.8,286046998.4,P
1689611575.7,286046998.3,P
1689611595.5,286047000.7,N
1689611615.3,286046998.1,N
1689611635.2,286046998.7,N
1689611655.0,286046998.3,N
1689611655.9,286046998.3,N
1689611675.8,286046998.1,N
1689611695.6,286047000.2,N
1689611715.4,286047000.0,N
1689611735.3,286046999.9,N
1689611755.1,286047000.8,N
1689611775.8,286047000.4,N
1689611795.7,286047000.5,N
1689611815.5,286046999.9,N
1689611835.4,286047001.0,N
1689611855.2,286046998.2,N
1689611875.0,286047001.2,N
1689611875.9,286047001.2,N
1689611895.8,286047000.5,N
1689611915.6,286046998.1,N
1689611935.4,286046998.3,N
1689611955.3,286046999.0,N
1689611975.1,286046999.0,N
1689611995.9,286046999.0,N
1689612015.7,286046999.4,N
1689612035.5,286047000.8,N
1689612055.4,286046998.4,N
1689612075.2,286046998.1,N
1689612095.0,286046998.4,N
1689612095.9,286046998.4,N
1689612115.8,286046998.7,N
1689612135.6,286046998.1,N
1689612155.5,286046998.9,N
1689612175.3,286046998.4,N
1689612195.1,286046999.0,N
1689612215.9,286046999.2,N
1689612235.7,286046998.9,N
1689612255.6,286046999.3,N
1689612275.4,286046999.5,N
1689612295.2,286046998.1,N
1689612315.1,286047001.1,N
1689612316.0,286047001.1,N
1689612335.8,286046998.5,N
1689612355.6,286046998.1,N
1689612375.5,286046999.0,N
1689612395.3,286046999.6,N
1689612415.2,286046999.5,N
1689612435.9,286046996.6,Y
1689612455.7,286046998.5,P
1689612475.6,286046998.9,P
1689612495.4,286046999.4,N
1689612515.3,286046998.8,Y
1689612535.1,286047000.7,P
1689612536.0,286047000.7,N
1689612555.8,286046998.9,N
1689612575.7,286046998.5,N
1689612595.5,286047000.9,N
1689612615.3,286046998.5,N
1689612635.2,286046999.3,N
1689612655.0,286046999.4,N
1689612655.9,286046999.4,N
1689612675.8,286046999.1,N
1689612695.6,286046998.7,N
1689612715.4,286046996.6,Y
1689612735.3,286046999.3,P
1689612755.1,286046998.8,P
1689612775.8,286046998.6,P
1689612795.7,286047001.2,Y
1689612815.5,286047002.3,P
1689612835.4,286046999.7,N
1689612855.2,286047002.3,N
1689612875.0,286047002.6,N
1689612875.9,286047002.6,N
1689612895.8,286047000.9,N
1689612915.6,286047000.7,N
1689612935.5,286047000.9,N
1689612955.3,286047002.8,N
1689612975.1,286047002.6,N
1689612995.9,286047000.0,N
1689613015.7,286047002.7,N
1689613035.5,286047002.7,N
1689613055.4,286047002.7,N
1689613075.2,286047002.1,N
1689613095.1,286047002.3,N
1689613096.0,286047002.3,N
1689613115.8,286047001.9,N
1689613135.6,286047001.6,N
1689613155.5,286047004.3,Y
1689613175.3,286046999.8,P
1689613195.1,286047002.4,N
